News

Flying Academy is opening IR English course in Prague and Brno as of 4th of October 2014.

We are opening following course of IR English and phraseology that will carefully prepare you for CAA examination.

Each pilot that will have a skill test for IR qualification must successfully pass the IR English test before according to Part-FCL regulations.  

The course contents:

The IR English course covers 50 hours of training. Classes will take place each Saturday from 8.00 to 15.30 in duration of 7 weeks. Based on successful skill test that will be performed on a final hour you will get the certificate of completion IR English training course. 

continue reading >>

0-ATPL(A) free webinar

Flying Academy is hosting on 4th of September from 17:00 to 18:00 CET (UTC+2)
a free live webinar where our Flight Training Consultants will present all details about our 0-ATPL(A) course.

During this one hour presentation we will discuss about:

- course description

- requirements to enroll

- course duration and cost

- living in the Czech Republic

- visa assistance for non EU trainees

- extra curricular activities.

We will also have a Q&A session at the end so that all question which you might have will be answered.

You can register for free HERE.

See you on the webinar and soon aboard our airplanes!

continue reading >>

Flight Pad - new version

There is a new version of Flight Pad available.

To install new verison click on hyperlink install application in browser on your iPad.

continue reading >>

archive

Latest blog post

10 advantages for using the iPad in the cockpit

Flying Academy – the flight training organization managed by airline pilots – has started 2 months ago to equip its trainees with iPads. The Academy took the lead to revolutionize the cockpit and pilot training, realizing the vision of paperless flying and becoming the first Czech FTO to fly with iPad EFBs. The process will make learning to fly much easier, more efficient and accurate, useful for private pilots and important for future commercial pilots.

After having the iPad in trials, Flying Academy’s flight instructors have concluded that it’s extremely useful in the cockpit because it’s:

1. Fast – extremely short response time;

2. Reliable – as the iOS has very limited crashes;

3. Easy to use – intuitive menu and apps.

continue reading >>

archive

Latest weather

LKKV

LKKV 021100Z 05004KT 9999 FEW030 16/11 Q1020

LKPR

LKPR 021100Z 33009KT 9999 BKN011 OVC030 15/12 Q1019 NOSIG

LKTB

LKTB 021100Z 32008KT 9999 -RA SCT007 OVC022 15/13 Q1016 NOSIG



Briefing tools

METAR & TAF Europe

METAR & TAF CZ

Weather Radar CZ

AIP Czech Republic

From 0 to 500 hours with Flying Academy Find out how